Bloomington, IN

8:16 PM EDT on October 19, 2017 (GMT -0400)
Monroe County

Weather History for KBMG - January, 2013

Change the Weather History Date:

Thursday, January 31, 2013

  Actual Average Record
Temperature  
Mean Temperature 21 °F 30 °F  
Max Temperature 31 °F 40 °F 63 °F (2016)
Min Temperature 10 °F 21 °F -22 °F (2004)
Degree Days  
Heating Degree Days 44 35  
Month to date heating degree days 1030 1107  
Since 1 July heating degree days 3044 3175  
Cooling Degree Days 0 0  
Month to date cooling degree days 0 0  
Year to date cooling degree days 0 0  
Moisture  
Dew Point 14 °F    
Average Humidity 67    
Maximum Humidity 81    
Minimum Humidity 53    
Precipitation  
Precipitation 0.01 in 0.10 in 1.35 in (2002)
Month to date precipitation 5.46 3.31  
Year to date precipitation 5.46 3.31  
Sea Level Pressure  
Sea Level Pressure 29.94 in    
Wind  
Wind Speed 15 mph (WNW)    
Max Wind Speed 28 mph    
Max Gust Speed 38 mph    
Visibility 6 miles    
Events Fog , Snow    
T = Trace of Precipitation, MM = Missing Value Source: NWS Daily Summary

Daily Weather History Graph

Daily Weather History Graph

Search for Another Location

Airport or City:

Trip Planner

Search our weather history database for the weather conditions in past years. The results will help you decide how hot, cold, wet, or windy it might be!

Date:

Astronomy

Jan. 31, 2013 Rise Set
Actual Time 7:53 AM EST 6:06 PM EST
Civil Twilight 7:25 AM EST 6:34 PM EST
Nautical Twilight 6:53 AM EST 7:06 PM EST
Astronomical Twilight 6:22 AM EST 7:38 PM EST
Moon 11:05 PM EST (1/31) 9:55 AM EST (1/31)
Length of Visible Light 11h 09m
Length of Day
10h 12m
Waning Gibbous, 80% of the Moon is Illuminated
Jan 31
Waning Gibbous
Feb 3
Last Quarter
Feb 10
New
Feb 17
First Quarter
Feb 25
Full

Hourly Weather History & Observations

Time (EST) Temp. Windchill Dew Point Humidity Pressure Visibility Wind Dir Wind Speed Gust Speed Precip Events Conditions
12:53 AM 27.0 °F 12.5 °F 16.0 °F 63% 29.73 in 10.0 mi WNW 23.0 mph 36.8 mph 0.00 in   Overcast
1:07 AM 26.6 °F 12.4 °F 15.8 °F 64% 29.73 in 10.0 mi WNW 21.9 mph 32.2 mph N/A   Overcast
1:53 AM 26.1 °F 14.5 °F 16.0 °F 66% 29.77 in 10.0 mi WNW 13.8 mph 24.2 mph 0.00 in   Overcast
2:12 AM 26.6 °F 16.2 °F 17.6 °F 69% 29.75 in 6.0 mi West 11.5 mph 23.0 mph 0.00 in Snow Light Snow
2:53 AM 26.1 °F 16.2 °F 16.0 °F 66% 29.80 in 9.0 mi West 10.4 mph 29.9 mph 0.00 in   Overcast
3:11 AM 26.6 °F 13.8 °F 15.8 °F 64% 29.79 in 6.0 mi West 17.3 mph 28.8 mph 0.00 in Snow Light Snow
3:53 AM 25.0 °F 11.3 °F 15.1 °F 66% 29.82 in 7.0 mi West 18.4 mph 27.6 mph 0.00 in Snow Light Snow
4:53 AM 25.0 °F 12.6 °F 12.9 °F 60% 29.83 in 10.0 mi West 15.0 mph 31.1 mph 0.00 in   Overcast
5:53 AM 24.1 °F 10.1 °F 10.0 °F 55% 29.86 in 10.0 mi WNW 18.4 mph 31.1 mph N/A   Overcast
7:53 AM 24.1 °F 13.1 °F 12.0 °F 60% 29.90 in 10.0 mi West 11.5 mph - N/A   Overcast
8:53 AM 25.0 °F 15.5 °F 12.9 °F 60% 29.92 in 10.0 mi WSW 9.2 mph 18.4 mph N/A   Overcast
9:53 AM 26.1 °F 15.6 °F 15.1 °F 63% 29.94 in 10.0 mi WSW 11.5 mph - N/A   Overcast
10:53 AM 26.1 °F 14.0 °F 12.9 °F 58% 29.96 in 8.0 mi West 15.0 mph 24.2 mph 0.00 in Snow Light Snow
11:53 AM 27.0 °F 14.7 °F 15.1 °F 61% 29.96 in 8.0 mi West 16.1 mph 26.5 mph 0.00 in   Overcast
12:53 PM 28.9 °F 17.7 °F 18.0 °F 64% 29.96 in 8.0 mi West 15.0 mph 27.6 mph 0.00 in Snow Light Snow
1:53 PM 28.0 °F 15.7 °F 16.0 °F 61% 29.95 in 8.0 mi WSW 17.3 mph 28.8 mph 0.00 in Snow Light Snow
2:53 PM 28.9 °F 16.5 °F 17.1 °F 61% 29.94 in 10.0 mi West 18.4 mph 25.3 mph 0.00 in   Overcast
3:53 PM 30.0 °F 19.5 °F 15.1 °F 54% 29.93 in 10.0 mi West 13.8 mph 21.9 mph 0.00 in   Overcast
4:53 PM 28.9 °F 18.6 °F 16.0 °F 58% 29.93 in 10.0 mi WSW 12.7 mph 26.5 mph N/A   Overcast
5:36 PM 28.4 °F 15.1 °F 19.4 °F 69% 29.92 in 2.5 mi West 20.7 mph 26.5 mph 0.00 in Snow Light Snow
5:42 PM 26.6 °F 16.2 °F 19.4 °F 74% 29.92 in 0.8 mi West 11.5 mph 26.5 mph 0.00 in Snow Light Snow
5:53 PM 26.1 °F 15.6 °F 21.9 °F 84% 29.95 in 0.5 mi WNW 11.5 mph - 0.00 in Fog , Snow Light Snow
6:10 PM 24.8 °F 11.5 °F 21.2 °F 86% 29.93 in 0.5 mi WNW 17.3 mph 24.2 mph 0.00 in Fog , Snow Snow
6:31 PM 24.8 °F 14.6 °F 21.2 °F 86% 29.93 in 1.0 mi West 10.4 mph - 0.00 in Snow Light Snow
6:37 PM 24.8 °F 14.0 °F 21.2 °F 86% 29.94 in 0.5 mi WNW 11.5 mph 18.4 mph 0.00 in Fog , Snow Snow
6:49 PM 24.8 °F 15.3 °F 19.4 °F 80% 29.94 in 0.2 mi NW 9.2 mph 17.3 mph 0.01 in Fog , Snow Snow
6:53 PM 24.1 °F 14.4 °F 19.9 °F 84% 29.97 in 0.5 mi NW 9.2 mph - 0.01 in Fog , Snow Snow
7:12 PM 23.0 °F 10.6 °F 17.6 °F 80% 29.95 in 1.8 mi WNW 13.8 mph 26.5 mph 0.00 in Snow Light Snow
7:19 PM 23.0 °F 9.6 °F 17.6 °F 80% 29.96 in 2.0 mi WNW 16.1 mph 25.3 mph 0.00 in Snow Light Snow
7:38 PM 21.2 °F 8.9 °F 15.8 °F 80% 29.98 in 1.5 mi NW 12.7 mph 25.3 mph 0.00 in Snow Light Snow
7:53 PM 19.9 °F 8.6 °F 14.0 °F 78% 30.02 in 1.2 mi NW 10.4 mph 25.3 mph 0.00 in Snow Light Snow
8:36 PM 17.6 °F 5.0 °F 8.6 °F 68% 30.02 in 3.0 mi NW 11.5 mph 26.5 mph 0.00 in Snow Light Snow
8:48 PM 17.6 °F 2.2 °F 6.8 °F 63% 30.03 in 4.0 mi WNW 17.3 mph 29.9 mph 0.00 in   Overcast
8:53 PM 17.1 °F 2.0 °F 6.1 °F 62% 30.06 in 4.0 mi NW 16.1 mph 32.2 mph 0.00 in Snow Light Snow
9:08 PM 15.8 °F 3.4 °F 6.8 °F 68% 30.03 in 6.0 mi NW 10.4 mph 25.3 mph 0.00 in Snow Light Snow
9:53 PM 12.9 °F -3.9 °F 3.0 °F 65% 30.10 in 7.0 mi WNW 17.3 mph 27.6 mph 0.00 in   Mostly Cloudy
10:00 PM 12.2 °F -3.7 °F 1.4 °F 62% 30.07 in 7.0 mi WNW 15.0 mph 27.6 mph N/A   Scattered Clouds
10:25 PM 12.2 °F -4.3 °F 1.4 °F 62% 30.08 in 8.0 mi WNW 16.1 mph 24.2 mph N/A   Mostly Cloudy
10:53 PM 10.9 °F -5.9 °F 1.0 °F 64% 30.15 in 6.0 mi NW 16.1 mph 27.6 mph 0.00 in   Haze
11:53 PM 10.0 °F -8.1 °F -2.0 °F 58% 30.19 in 4.0 mi WNW 18.4 mph 35.7 mph 0.00 in   Partly Cloudy